Location: Seattle
(47.6064°N, 122.3308°W)
Time: 04:00:53
(UTC-08:00)

S-56A Canister/Altair - Pass Details

Date: 04 December 2020
Orbit: 633 x 2499 km, 38.9° (Epoch: 23 January)

Event Time Altitude Azimuth Distance (km) Brightness Sun altitude
Rises 16:15:09 0° 210° (SSW) 6,161 13.5 -0.4°
Reaches altitude 10° 16:20:03 10° 200° (SSW) 5,086 12.7 -1.0°
Maximum altitude 16:31:24 29° 149° (SSE) 3,360 10.8 -2.7°
Drops below altitude 10° 16:40:34 10° 95° (E) 4,091 10.7 -4.0°
Enters shadow 16:43:42 - 85° (E) 4,752 11.0 -4.5°
Sets 16:43:59 0° 84° (E) 4,815 - -4.5°
